• Join FlightAware (Why Join?)
  • Login
  • US Flag 
05:31PM EST


 

Airport Tracker/Info


-or-


 

Live Flight TrackerFlight Track Log ✈ N515KK ✈ 22-Apr-2013 ✈ KNEW - KMGM

Flight Track Log - Related Links

Times and Time Zones

All times are in EDT time to prevent confusion due to time zone crossing. See the N515KK flight status page for this flight to view local times or setup timezone preferences in your user account.

Time Position Orientation Groundspeed Altitude Reporting Facility
EDT Latitude Longitude Course Direction KTS MPH feet Rate Location/Type
12:03PM 30.0528 -90.0297 357° North 146 168 500  Level Houston Center
12:03PM 30.0967 -90.0328 357° North 191 220 2,100 1,855 Climbing Houston Center
12:04PM 30.1500 -89.9992 29° Northeast 261 300 3,900 2,047 Climbing Houston Center
12:06PM 30.2167 -89.9344 40° Northeast 261 300 6,500 2,074 Climbing Houston Center
12:07PM 30.2803 -89.8758 39° Northeast 286 329 8,600 2,177 Climbing Houston Center
12:08PM 30.3317 -89.7989 52° Northeast 299 344 11,000 2,371 Climbing Houston Center
12:09PM 30.3889 -89.7094 53° Northeast 312 359 13,500 2,177 Climbing Houston Center
12:10PM 30.4414 -89.6231 55° Northeast 323 372 15,500 1,776 Climbing Houston Center
12:11PM 30.4950 -89.5314 56° Northeast 338 389 17,200 1,728 Climbing Houston Center
12:12PM 30.5631 -89.4183 55° Northeast 353 406 19,100 1,694 Climbing Houston Center
12:13PM 30.6197 -89.3228 55° Northeast 359 413 20,700 1,403 Climbing Houston Center
12:14PM 30.6778 -89.2247 55° Northeast 368 423 22,000 871 Climbing Houston Center
12:15PM 30.7381 -89.1228 55° Northeast 382 440 22,500 484 Climbing Houston Center
12:16PM 30.8025 -89.0131 56° Northeast 406 467 23,000 242 Climbing Houston Center
12:17PM 30.8747 -88.8878 56° Northeast 417 480 23,000  Level Houston Center
12:18PM 30.9417 -88.7753 55° Northeast 421 484 23,000  Level Houston Center
12:19PM 31.0081 -88.6633 55° Northeast 420 483 23,000  Level Houston Center
12:20PM 31.0739 -88.5497 56° Northeast 421 484 23,000  Level Houston Center
12:21PM 31.1419 -88.4369 55° Northeast 420 483 23,000  Level Houston Center
12:22PM 31.2086 -88.3203 56° Northeast 422 486 23,000  Level Houston Center
12:23PM 31.2900 -88.1825 55° Northeast 423 487 23,000  Level Houston Center
12:24PM 31.3561 -88.0672 56° Northeast 424 488 23,000  Level Houston Center
12:25PM 31.4128 -87.9731 55° Northeast 424 488 23,000  Level Atlanta Center
12:26PM 31.4789 -87.8567 56° Northeast 419 482 23,000  Level Atlanta Center
12:27PM 31.5450 -87.7450 55° Northeast 419 482 23,000  Level Atlanta Center
12:28PM 31.6108 -87.6356 55° Northeast 414 476 23,000 -450 Level Atlanta Center
12:29PM 31.6725 -87.5233 57° Northeast 407 468 22,100 -1,250 Descending Atlanta Center
12:30PM 31.7339 -87.4133 57° Northeast 407 468 20,500 -1,950 Descending Atlanta Center
12:31PM 31.7933 -87.3008 58° Northeast 395 455 18,200 -2,050 Descending Atlanta Center
12:32PM 31.8481 -87.2025 57° Northeast 369 425 16,400 -1,100 Descending Atlanta Center
12:33PM 31.8983 -87.1161 56° Northeast 342 394 16,000 -350 Descending Atlanta Center
12:34PM 31.9397 -87.0442 56° Northeast 305 351 15,700 -1,050 Descending Atlanta Center
12:35PM 31.9856 -86.9575 58° Northeast 293 337 13,900 -1,900 Descending Atlanta Center
12:36PM 32.0417 -86.8761 51° Northeast 307 353 11,900 -1,950 Descending Atlanta Center
12:37PM 32.0997 -86.8044 46° Northeast 307 353 10,000 -2,050 Descending Atlanta Center
12:38PM 32.1533 -86.7350 48° Northeast 302 348 7,800 -2,050 Descending Atlanta Center
12:39PM 32.2069 -86.6703 46° Northeast 280 322 5,900 -1,850 Descending Atlanta Center
12:40PM 32.2542 -86.6128 46° Northeast 257 296 4,100 -1,800 Descending Atlanta Center
12:41PM 32.3192 -86.5975 11° North 232 267 2,300 -1,050 Descending Atlanta Center
12:42PM 32.3161 -86.5358 93° East 183 211 2,000 -400 Descending Atlanta Center
12:43PM 32.3089 -86.4842 99° East 159 183 1,500 -650 Descending Atlanta Center
12:44PM 32.3056 -86.4422 95° East 153 176 700 -800 Descending Atlanta Center
12:46PM 32.3006 -86.3940 48° Northeast  Level Estimated
12:53PM 32.3006 -86.3940 48° Northeast  Level Estimated